Simultaneous Nadir Overpasses (SNOs) Predictions

Prediction of SNOs between LANDSAT-8 and NPP Satellite Orbit:

Table of predicted SNOs for the next 14.0 days since TLE Epoch: 3/4/2016
Index Date (LANDSAT-8) Time (LANDSAT-8) Lat,Lon (LANDSAT-8) SZA (LANDSAT-8 ) Date (NPP) Time (NPP) Lat,Lon (NPP) SZA (NPP ) Distance(km) Time Diff (sec)
1 03/05/2016 13:52:18 70.28, -31.46 76.03 03/05/2016 13:51:17 70.29, -31.39 76.05 2.99 61
2 03/05/2016 14:41:47 -70.22, 136.08 104.04 03/05/2016 14:41:59 -70.20, 136.07 104.06 2.21 12
3 03/05/2016 15:31:24 69.57, -57.18 75.33 03/05/2016 15:32:33 69.56, -55.66 75.25 59.02 69
4 03/08/2016 06:08:46 70.31, 84.46 75.01 03/08/2016 06:08:10 70.29, 84.38 75.01 3.29 36
5 03/08/2016 06:58:17 -70.14,-108.15 105.16 03/08/2016 06:58:51 -70.14,-108.07 105.17 2.93 34
6 03/10/2016 21:35:38 -70.87, 33.53 105.50 03/10/2016 21:34:28 -70.92, 31.83 105.37 62.09 70
7 03/10/2016 22:25:15 70.22,-159.80 73.87 03/10/2016 22:25:01 70.24,-159.77 73.90 3.16 14
8 03/10/2016 23:14:44 -70.16, 7.76 106.20 03/10/2016 23:15:43 -70.15, 7.70 106.22 2.99 59
9 03/13/2016 13:52:16 -70.34, 148.61 107.07 03/13/2016 13:51:10 -70.35, 148.53 107.03 3.50 66
10 03/13/2016 14:41:43 70.23, -43.90 72.82 03/13/2016 14:41:53 70.20, -43.93 72.80 3.01 10
11 03/13/2016 15:31:19 -69.79, 123.12 107.61 03/13/2016 15:32:30 -69.83, 123.95 107.61 32.18 71
12 03/16/2016 06:08:45 -70.29, -95.58 108.18 03/16/2016 06:08:02 -70.31, -95.63 108.14 3.12 43
13 03/16/2016 06:58:12 70.17, 71.90
